Cloud_Cover
24 32 32 32 32 32 32 32 32 24 20 12 12 8 8 0 12 24 36 48 56 56 48 44 36 36 32 32 24 20 12 8 0 0 0 0 0 0 0 12 12 44 76 76 80 80 80 92 80 64 56 68 68 64 64 68 64 56 48 56 76 76 56 48 44 44 48 68 76
32 32 24 12 12 12 8 8 8 0 0 0 0 0 0 0 20 32 44 56 56 44 32 24 20 12 8 8 0 0 0 0 0 0 0 0 0 0 0 0 0 8 8 8 48 64 68 76 56 56 56 64 76 68 68 76 68 64 56 56 80 76 64 48 44 36 36 36 68
0 0 0 0 0 0 0 0 0 0 0 0 0 0 0 8 12 20 12 12 20 20 12 8 0 0 0 0 0 0 0 0 0 0 8 8 8 8 8 0 0 0 0 0 12 20 32 44 12 8 8 8 8 24 48 68 68 64 56 48 68 64 48 48 44 44 44 48 44
0 0 0 0 0 0 0 0 0 0 0 0 0 8 8 12 12 12 12 12 12 8 0 0 0 0 0 0 12 20 20 24 24 24 24 24 12 12 12 12 12 12 8 0 0 0 8 8 0 0 0 0 0 0 0 0 12 20 24 24 36 48 64 76 56 64 76 76 80
0 0 0 0 0 0 0 0 0 0 8 8 8 8 8 8 12 12 12 12 12 8 8 8 8 8 12 32 36 36 36 32 32 24 24 24 12 8 8 0 0 0 0 0 0 0 0 12 0 0 0 0 0 0 20 88 80 64 48 76 88 88 88 88 88 88 88 88 92
0 0 0 0 0 0 0 0 0 0 8 8 12 12 12 12 20 20 24 24 24 20 20 20 24 32 44 36 32 20 8 8 8 8 8 8 12 20 20 20 20 20 20 20 20 32 36 32 24 20 24 48 80 88 80 56 68 76 88 92 92 92 92 88 92 92 92 92 88
0 0 0 0 0 0 0 0 0 0 8 12 12 20 24 32 32 36 36 32 32 32 36 36 20 12 8 8 12 12 12 20 24 32 36 36 36 44 44 44 48 48 48 44 48 44 44 44 44 44 56 88 88 80 80 80 80 88 88 92 92 88 88 88 92 92 92 92 92
0 0 0 0 0 0 0 0 0 0 8 8 20 32 32 32 32 24 20 24 24 20 8 8 12 12 12 24 32 36 36 36 32 36 44 36 44 36 36 36 36 44 48 56 48 48 64 76 68 80 88 88 88 64 44 48 64 80 88 88 88 88 88 92 92 92 92 92 92
0 0 0 0 0 0 0 0 0 0 0 0 0 0 0 0 0 0 0 0 8 12 12 20 32 44 56 76 76 68 56 32 24 12 0 0 12 8 0 0 0 8 12 8 24 56 88 92 92 92 92 92 80 68 56 56 64 80 92 92 92 92 92 92 92 92 92 92 88
0 0 0 0 0 0 0 0 0 0 0 0 0 0 0 0 8 12 20 20 36 44 56 68 80 88 80 68 64 48 36 12 0 0 0 0 0 0 0 0 0 0 8 20 44 64 80 88 88 92 92 88 80 80 76 68 76 80 92 88 88 88 92 92 92 92 92 92 92
0 0 0 0 0 0 0 0 0 0 0 0 0 0 0 8 12 36 64 68 88 92 88 88 76 68 64 48 44 32 20 0 0 0 0 0 0 0 0 8 20 20 24 36 48 48 48 56 64 76 80 76 76 76 76 76 76 80 80 80 80 80 80 80 88 92 92 92 92
0 0 0 0 0 0 0 0 0 0 0 8 8 8 8 8 8 36 64 56 64 64 64 56 48 44 44 32 20 8 0 0 0 0 0 0 0 0 0 0 20 24 20 0 20 24 24 32 44 56 56 64 68 76 76 80 80 80 76 76 88 92 88 80 88 92 92 92 92
0 0 0 0 0 0 0 0 8 8 8 12 12 12 8 8 8 8 8 8 8 8 20 48 32 20 12 0 0 0 0 0 0 0 0 0 0 0 0 0 0 0 0 0 0 0 0 0 24 44 48 68 80 92 92 80 80 88 92 92 92 92 92 92 92 92 92 92 92
0 0 0 0 0 0 0 0 8 12 12 8 8 8 8 8 8 0 0 0 0 0 0 0 0 0 0 0 0 0 0 0 0 0 0 0 0 0 0 0 0 0 0 0 0 0 0 0 0 0 12 36 44 64 68 36 36 56 76 80 80 88 88 92 92 92 88 92 92
0 0 0 0 0 0 0 0 0 0 0 0 0 0 0 0 0 0 0 0 0 0 0 0 0 0 0 0 0 0 0 0 0 0 0 0 0 0 0 0 0 0 0 0 0 0 0 0 0 0 0 0 0 12 20 0 0 12 24 36 36 48 64 76 88 80 80 88 80
0 0 0 0 0 0 0 0 0 0 0 0 0 0 0 0 0 0 0 0 0 0 0 0 0 0 0 0 0 0 0 0 0 0 0 0 0 0 0 0 0 0 0 0 0 0 0 0 0 0 0 0 0 0 0 0 0 0 0 0 0 8 20 24 44 36 36 56 68
0 0 0 0 0 0 0 0 0 0 0 0 0 0 0 0 0 0 0 0 0 0 0 0 0 0 0 0 0 0 0 0 0 0 0 0 0 0 0 0 0 0 0 0 0 0 0 0 0 0 0 8 0 0 0 0 0 0 0 0 0 0 0 0 0 0 0 8 32
0 0 0 0 0 0 0 0 0 0 0 0 0 0 0 0 0 0 0 0 0 0 0 0 0 0 0 0 0 0 0 0 0 0 0 0 0 0 0 0 0 0 0 0 0 0 0 0 0 0 8 24 24 12 0 0 0 0 0 0 0 0 0 0 0 0 0 0 0
0 0 0 0 0 0 0 0 0 0 0 0 0 0 0 0 8 0 0 0 0 0 0 0 0 0 0 0 0 0 0 0 0 0 0 0 0 0 0 0 0 0 0 0 0 0 0 0 0 12 24 36 24 8 0 0 0 0 0 0 0 0 0 0 0 0 0 0 0
0 0 0 0 0 0 0 0 0 0 0 0 0 0 12 20 24 12 0 0 0 0 0 0 0 0 0 0 0 0 0 0 0 0 0 0 0 0 0 0 0 0 0 0 0 0 0 0 12 24 32 12 0 0 0 0 0 0 0 0 0 0 0 0 0 0 0 0 0
0 0 0 0 0 0 0 0 0 0 0 0 12 24 36 44 32 12 0 0 0 0 0 0 0 0 0 0 0 0 0 0 0 0 0 0 0 0 0 0 0 0 0 0 0 0 0 0 8 12 12 0 0 0 0 0 0 0 0 0 0 0 0 0 0 0 0 0 0
0 0 0 0 0 0 0 0 0 8 20 32 48 56 56 36 24 12 0 0 0 0 0 0 0 0 0 0 0 0 0 0 0 0 0 0 0 0 0 0 0 0 0 0 0 0 0 0 0 0 0 0 0 0 0 0 0 0 0 0 0 0 0 0 0 0 0 0 0
0 0 0 0 0 0 0 0 20 44 64 68 68 64 44 24 8 0 0 0 0 0 0 0 0 0 0 0 0 0 0 0 0 0 0 0 0 0 0 0 0 0 0 0 0 0 0 0 0 0 0 0 0 0 0 0 0 0 0 0 0 0 0 0 0 0 0 0 0
0 0 0 0 0 0 0 0 64 88 80 64 56 44 24 8 0 0 0 0 0 0 0 0 0 0 0 0 0 0 0 0 0 0 0 0 0 0 0 0 0 0 0 0 0 0 0 0 0 0 0 0 0 0 0 0 0 0 0 0 0 0 0 0 0 0 0 0 0
0 0 0 0 0 8 24 44 80 76 56 48 36 24 8 0 0 0 0 0 0 0 0 0 0 0 0 0 0 0 0 0 0 0 0 0 0 0 0 0 0 0 0 0 0 0 0 0 0 0 0 0 0 0 0 0 0 0 0 0 0 0 0 0 0 0 0 0 0
0 0 0 12 24 44 68 76 68 64 48 32 12 0 0 0 0 0 0 0 0 0 0 0 0 0 0 0 0 0 0 0 0 0 0 0 0 0 0 0 0 0 0 8 0 0 0 0 0 0 0 0 0 0 0 0 0 0 0 0 0 0 0 0 0 0 0 0 0
0 12 32 44 64 76 80 80 56 44 24 0 0 0 0 0 0 0 0 0 0 0 0 0 0 0 0 0 0 0 0 0 0 0 0 0 0 0 0 8 8 12 12 12 0 0 0 0 0 0 0 0 0 0 0 0 0 0 0 0 0 0 0 0 0 0 0 0 0
24 48 68 76 80 80 76 76 36 12 0 0 0 0 0 0 0 0 0 0 0 0 0 0 0 0 0 0 0 0 0 0 0 0 0 0 12 20 20 32 32 32 24 12 0 0 0 0 0 0 0 0 0 0 0 0 0 0 0 0 0 0 0 0 0 0 0 0 0
64 80 88 76 68 76 88 88 24 0 0 0 0 0 0 0 0 0 0 0 0 0 0 0 0 0 0 0 0 0 0 0 0 0 0 0 0 20 36 48 48 44 32 20 8 0 0 0 0 8 12 12 12 8 0 0 0 0 0 0 24 32 20 0 0 0 0 0 0
76 80 92 92 92 80 64 32 8 0 0 0 0 0 0 0 0 0 0 0 0 0 0 0 0 0 0 0 0 0 0 0 0 0 0 0 0 0 8 32 44 44 36 36 20 24 32 36 44 48 56 48 36 32 32 36 44 44 48 64 48 36 24 8 0 0 0 0 0
92 92 92 92 92 68 44 24 8 0 0 0 0 0 0 0 0 0 0 0 0 0 0 0 0 0 0 0 0 0 0 0 0 0 0 0 0 0 0 0 24 36 36 32 32 36 56 76 80 88 88 88 80 68 56 48 44 48 48 44 44 32 12 0 0 0 0 0 0
80 88 92 88 68 44 20 0 0 0 0 0 0 0 0 0 0 0 0 0 0 0 0 0 0 0 0 0 0 0 0 0 0 0 0 0 0 0 0 20 44 36 24 32 32 32 44 68 68 68 76 80 80 80 68 44 32 32 32 32 24 20 8 0 0 0 0 0 0
92 88 76 64 36 12 0 0 0 0 0 0 0 0 0 0 0 0 0 0 0 0 0 0 0 0 0 0 0 0 0 0 0 0 0 0 0 0 0 0 24 36 32 12 20 20 32 56 56 48 48 44 44 44 36 24 24 32 36 36 36 24 12 0 0 0 0 0 0
80 76 64 36 12 0 0 0 0 0 0 0 0 0 0 0 0 0 0 0 0 0 0 0 0 0 0 0 0 0 0 0 0 0 0 0 0 0 0 0 0 12 20 0 8 12 20 24 36 44 44 36 36 32 24 24 24 36 44 44 36 24 12 0 0 0 0 0 0
64 48 32 12 0 0 0 0 0 0 0 0 0 0 0 0 0 0 0 0 0 0 0 0 0 0 0 0 0 0 0 0 0 0 0 0 0 0 0 0 0 0 0 0 0 0 0 0 0 0 12 20 36 48 48 36 44 32 12 12 12 8 0 0 0 0 0 0 0
44 24 8 0 0 0 0 0 0 0 0 0 0 0 0 0 0 0 0 0 0 0 0 0 0 0 0 0 0 0 0 0 0 0 0 0 0 0 0 0 0 0 0 0 0 0 0 0 0 0 0 8 44 64 68 64 36 24 8 0 0 0 0 0 0 0 0 0 0
24 8 0 0 0 0 0 0 0 0 0 0 0 0 0 8 0 0 0 0 0 0 0 0 0 0 0 0 0 0 0 0 0 0 0 0 8 8 0 0 0 0 0 0 0 0 0 0 8 12 24 48 76 80 68 44 24 12 8 0 0 0 0 0 0 0 0 0 0
8 0 0 0 0 0 0 0 0 0 0 0 12 20 20 12 12 8 8 0 0 0 0 0 0 0 0 0 0 0 0 0 0 0 0 0 0 0 0 0 0 0 0 0 0 0 8 24 32 48 68 80 76 76 64 32 12 8 8 8 0 0 0 0 0 0 0 0 0
0 0 0 0 0 0 0 0 0 0 8 20 36 36 32 24 24 20 12 12 0 0 0 0 0 0 8 0 0 0 0 0 0 0 0 0 0 0 0 0 0 0 0 0 0 0 12 48 68 80 80 64 56 56 56 64 24 12 12 8 8 0 0 0 0 0 0 0 0
0 0 0 0 0 0 0 0 0 8 24 56 64 48 44 36 36 32 24 20 8 8 0 0 8 12 12 8 0 0 0 0 0 8 8 8 0 0 0 0 0 0 0 0 0 0 0 12 48 76 68 32 36 48 64 64 36 24 20 8 8 0 0 0 0 0 0 0 0
0 0 0 0 0 0 0 0 0 20 44 64 44 36 44 56 48 44 32 32 20 20 12 8 20 20 20 8 0 0 0 0 8 12 12 8 0 0 0 0 0 0 0 0 0 0 0 0 12 48 68 32 32 32 32 32 36 36 32 20 8 0 0 0 0 0 0 8 0